Погода в Яксе

Погода в Яксе : погода сейчас, прогноз погоды и архив. Всё, что Вы хотите узнать о погоде в Яксе!

Поиск расширенной информации на нашем сайте:

Другие новости

Новости СМИ2

Главная страница сайта

Новости сайта

03.07.2017

Напоминаем, что на нашем специализированном сайте Метеоцентр.Азия вы можете получить высокодетализированные автоматические прогнозы погоды по пунктам России, СНГ и мира в авиационном формате (включающие направление и скорость ветра, видимость, явления погоды, количество и форму облачности, нижнюю и верхнюю границу облачности).

Рекомендуем: Очень выгодно - історія Дніпропетровська - честные цены!

Погода в Яксе - сегодня

Время (UTC), дата Ветер
(°,м/с) 
Видим.   Явления Облачность Т
(°С)
Тd
(°С)
f(%) Тe
(°С)
Pmin
(гПа)
dP
(гПа)
Po
(мм)
O2
(г/м3)
Тmin Tmax R s Состояние
почвы
06 16.01.18 280 (З) 10 км    10/10 240 м 
[St]
-7.5 -7.7 98 -9  1028.4  0.2  759  315  -7.5         
09 16.01.18 280 (З) 10 км    10/10 240 м 
[St]
-7.6 -7.9 98 -9  1028.9  0.5  759  315           
12 16.01.18 310 (СЗ) 10 км    10/10 240 м 
[St]
-8.1 -8.5 97 -8  1029.4  0.4  759  316           
15 16.01.18 270 (З) 10 км    10/10 240 м 
[St]
-8.8 -9.2 97 -10  1029.6  0.2  759  317    -7       
18 16.01.18 250 (З) 10 км    10/10 210 м 
[St]
-9.6 -9.8 98 -11  1029.7  759  318           
21 16.01.18 230 (ЮЗ) 10 км    10/10 240 м 
[St]
-10.4 -10.7 98 -10  1029.6  -0.1  759  319           
00 17.01.18 330 (СЗ) 10 км    10/10 240 м 
[St]
-11.2 -11.6 97 -11  1029.5  -0.2  759  320           
03 17.01.18 тихо ()   4000 м  слаб. снег  10/10 210 м 
[St]
-11.5 -12.1 95 -12  1029  -0.5  759  320  -11.8    0.0  44  равномерный
сухой снег
100% 
06 17.01.18 тихо ()   4000 м  слаб. снег  10/10 330 м 
[Frnb]
-11.9 -12.6 95 -12  1029.1  -0.1  759  321  -12         
09 17.01.18 010 (С) 4000 м  слаб. снег  10/8 330 м средняя 
[Frnb|As op]
-11.8 -12.7 93 -14  1029.1  759  321           
12 17.01.18 тихо ()   4000 м  слаб. ливневой снег  9/9 330 м кучево-дожд. 
[Cb cap]
-12.8 -13.8 92 -13  1029.1  759  322           
15 17.01.18 тихо ()   4000 м  слаб. ливневой снег  10/10 300 м кучево-дожд. 
[Cb cap]
-14.3 -15.3 92 -14  1028.9  -0.4  759  324    -11.5  0.3     
18 17.01.18 тихо ()   10 км  {ливн. осадки}  9/9 300 м 
[Frnb]
-16.5 -17.7 90 -17  1029  759  327           
21 17.01.18 тихо ()   10 км    3/3 600 м 
[Sc]
-19.5 -21.1 87 -20  1029.1  -0.1  758  331           
00 18.01.18 тихо ()   10 км    ясно 
-23.5 -25.6 83 -24  1029.2  -0.2  758  336           
03 18.01.18 тихо ()   10 км    8/0 верхняя 
[Ci sp]
-24.2 -26.5 81 -24  1029.5  0.2  758  337  -24.5    0.0  46  равномерный
сухой снег
100% 
06 18.01.18 тихо ()   4000 м  мгла  10/10 240 м 
[St]
-20.9 -22.7 85 -21  1030.1  0.8  759  333           
09 18.01.18 тихо ()   4000 м  слаб. снег  10/10 330 м 
[St]
-17.1 -18.5 89 -17  1030.6  0.8  760  328           
12 18.01.18 тихо ()   4000 м  слаб. снег  10/6 330 м средняя 
[Frnb|Ac As]
-15 -16.1 91 -15  1030.7  0.2  760  325           
15 18.01.18 120 (ЮВ) 4000 м  слаб. снег  10/10 330 м 
[Frnb]
-14.9 -16.1 91 -15  1030.9  0.1  760  325    -14.5  0.0     
18 18.01.18 160 (Ю) 4000 м  слаб. снег  10/10 570 м 
[Sc]
-15 -16.2 91 -15  1031.2  0.3  760  326           
21 18.01.18 130 (ЮВ) 10 км  {снег}  10/10 500 м 
[Sc]
-16.2 -17.5 90 -16  1032.4  1.1  761  327           
00 19.01.18 170 (Ю) 10 км  {снег}  10/4 600 м средняя 
[Sc|Ac As]
-16.1 -17.5 89 -16  1031.9  -0.5  761  327           
03 19.01.18 тихо ()   10 км    10/0 средняя 
[Ac As]
-16.6 -18 89 -17  1032.9  761  328  -16.8    0.0  46  равномерный
сухой снег
100% 
06 19.01.18 160 (Ю) 10 км    9/0 средняя 
[Ac trans]
-15.4 -16.6 90 -15  1034.3  1.4  762  327           
Время (UTC), дата Ветер
(°,м/с) 
Видим.   Явления Облачность Т
(°С)
Тd
(°С)
f(%) Тe
(°С)
Pmin
(гПа)
dP
(гПа)
Po
(мм)
O2
(г/м3)
Тmin Tmax R s Состояние
почвы

Для получения пояснительной информации подведите курсор к названию столбца.

ПОГОДА в Яксе - архив

Всё, что Вы хотите узнать о погоде в Яксе - удобно и подробно!

Выберите нужную дату (начиная с 1 января 2015* года) и нажмите кнопку "Найти".
Будут отображены архивные сводки погоды по пункту Якса, начиная с указанной даты.


Отображать данные в формате CSV (для использования в таблицах Excel)


Внимание! Наш архив погоды предназначен исключительно для личного некоммерческого использования в познавательных целях. Если Вам необходимы официальные справки о состоянии погоды (для производственных, юридических, коммерческих и т.п. целей), обращайтесь в органы Росгидромета.

*Примечание: данная дата относится к архиву по метеостанциям СССР (Россия, СНГ, Балтия).
Архив по метеостанциям Зарубежной Европы и Азии (кроме Китая) хранится 10 дней, по другим регионам земного шара (Китай, Африка, Америка, Австралия, Океания) - 1 день.

Якса - район местоположения метеостанции


Название, широта, долгота, высота метеостанции:
Якса 61.8°ш. 56.8°д. 130 м над ур. моря [Российская Федерация]

Дополнительная информация

В oтличие oт бoльшинства пoгoдных сайтoв мы публикуем пoдрoбную метеoинфoрмацию в детальнoм прoфессиoнальнoм фoрмате.

Характеристики температуры и влажнoсти вoздуха измеряются на высoте 2 м в тени вдали oт зданий и деревьев.
Скoрoсть ветра измеряется на высoте 10 м (на урoвне рoста челoвека скoрoсть ветра ниже в 1.5-2 раза). Если метеoстанция нахoдится в гoрoде или в лесу, тo скoрoсть ветра занижена на 2-4 м/с пo сравнению с oткрытым местoм. Скoрoсть ветра над акватoриями крупных рек и oзёр, а также на вершинах хoлмoв на 2-5 м/с выше, чем в oбычных услoвиях.
Атмoсфернoе давление в разных тoчках местнoсти мoжет значительнo oтличаться oт давления на метеoстанции, в зависимoсти oт услoвий рельефа (при пoдъёме на 10 м давление пoнижается примернo на 1 мм рт.ст.).